Regional Weather Roundup
Issued by NWS

Home | Current Version | Previous Version | Text Only | Print | Product List | Glossary On
Versions: 1 2 3 4 5 6 7 8 9 10 11 12 13 14 15 16 17 18 19 20 21 22 23 24 25 26 27 28 29 30 31 32 33 34 35 36 37 38 39 40 41 42 43 44 45 46 47 48 49 50
000
ASUS43 KLMK 061002
RWRKY
KENTUCKY REGIONAL WEATHER ROUNDUP
NATIONAL WEATHER SERVICE LOUISVILLE KY
500 AM EST SAT FEB 06 2016

NOTE "FAIR" INDICATES FEW OR NO CLOUDS BELOW 12,000 FEET
WITH NO SIGNIFICANT WEATHER AND/OR OBSTRUCTIONS TO VISIBILITY.

KYZ001>023-026-027-061>063-070>075-061100-
WESTERN AND SOUTH CENTRAL KENTUCKY

CITY           SKY/WX    TMP DP  RH WIND       PRES   REMARKS
PADUCAH        PTCLDY    29  22  75 CALM      30.33F
HENDERSON      CLEAR     27  21  80 CALM      30.34S
OWENSBORO      CLEAR     28  25  89 CALM      30.35S
HOPKINSVILLE   PTCLDY    30  23  75 S2        30.35S
BOWLING GREEN  CLEAR     26  21  81 CALM      30.37S
GLASGOW        NOT AVBL
$$

KYZ024-025-028>034-038-045-046-053-061100-
NORTH CENTRAL KENTUCKY

CITY           SKY/WX    TMP DP  RH WIND       PRES   REMARKS
LOUISVILLE/SDF PTCLDY    30  22  72 CALM      30.35S
LOUISVILLE/LOU CLEAR     29  22  75 CALM      30.36R
FORT KNOX      CLEAR     26  19  75 CALM      30.32S
$$

KYZ035>037-039>044-047>052-055>060-089>105-061100-
NORTHEAST KENTUCKY

CITY           SKY/WX    TMP DP  RH WIND       PRES   REMARKS
LEXINGTON      CLEAR     29  18  63 SW6       30.34R WCI  23
COVINGTON      MOCLDY    26  23  88 CALM      30.33
FRANKFORT      CLEAR     26  17  68 S5        30.33S WCI  20
$$

KYZ054-064>069-076>088-106>120-061100-
SOUTHEAST KENTUCKY

CITY           SKY/WX    TMP DP  RH WIND       PRES   REMARKS
JACKSON        PTCLDY    29  15  56 S5        30.34S WCI  24
LONDON         PTCLDY    25  20  81 CALM      30.36R
SOMERSET       NOT AVBL
MIDDLESBORO    NOT AVBL
MONTICELLO     MOSUNNY   24  18  77 W9        30.38S WCI  14
$$




USA.gov is the U.S. government's official web portal to all federal, state and local government web resources and services.